SCP
-0 0 0 0 0 0 0 -0 -0 -0 -0 -0 -0 -0 -0 -0 -0 -0 -0 -0 -0 -0 -0 -0 -0 -0 -0 -0 -0 -0 -0 -0 -0 -0 0 0 -0 0 0 -0 -0 -0 -0
0 0 0 0 0 0 0 -0 -0 -0 -0 -0 -0 -0 -0 -0 -0 -0 -0 -0 -0 -0 -0 -0 -0 -0 -0 -0 -0 -0 -0 -0 -0 0 0 0 0 0 0 -0 0 0 -0
-0 0 0 0 -0 0 0 -0 -0 -0 -0 -0 -0 -0 -0 -0 -0 -0 -0 -0 -0 -0 -0 -0 -0 -0 -0 -0 -0 -0 -0 -0 -0 0 0 -0 -0 0 0 -0 -0 0 0
-0 0 0 0 -0 -0 0 -0 -0 -0 -0 -0 -0 -0 -0 -0 -0 -0 -0 -0 -0 -0 -0 -0 -0 -0 -0 -0 -0 -0 -0 -0 -0 -0 -0 -0 -0 0 -0 -0 -0 -0 -0
-0 0 0 -0 -0 -0 -0 -0 -0 -0 -0 -0 -0 -0 -0 -0 -0 -0 -0 -0 -0 -0 -0 -0 -0 -0 -0 -0 -0 -0 -0 -0 0 -0 -0 -0 -0 -0 -0 -0 -0 -0 0
-0 0 0 -0 -0 -0 -0 -0 -0 -0 -0 -0 -0 -0 -0 0 -0 -0 -0 -0 -0 -0 -0 -0 -0 -0 -0 -0 -0 -0 -0 -0 0 -0 -0 -0 -0 0 -0 -0 0 0 0
-0 0 -0 -0 -0 -0 -0 -0 -0 -0 -0 -0 -0 -0 -0 0 0 -0 -0 -0 -0 -0 -0 -0 -0 -0 -0 -0 -0 -0 -0 -0 -0 0 0 -0 -0 -0 -0 -0 -0 -0 0
-0 -0 -0 -0 -0 -0 -0 -0 -0 -0 -0 -0 -0 -0 -0 -0 -0 -0 -0 -0 -0 -0 -0 0 -0 -0 -0 -0 -0 -0 -0 -0 0 0 0 0 0 -0 -0 -0 -0 -0 0
-0 -0 -0 -0 -0 -0 -0 -0 -0 -0 -0 -0 -0 -0 -0 -0 -0 0 -0 -0 -0 -0 -0 0 0 0 0 -0 -0 -0 -0 -0 0 -0 -0 -0 0 -0 -0 -0 -0 -0 -0
-0 -0 -0 -0 -0 -0 -0 -0 -0 -0 -0 -0 -0 -0 -0 -0 -0 -0 -0 -0 -0 0 -0 -0 0 0 0 0 -0 0 0 0 0 -0 -0 -0 0 -0 -0 -0 -0 -0 -0
-0 -0 -0 -0 -0 -0 -0 -0 -0 -0 -0 -0 -0 -0 -0 0 0 0 -0 -0 -0 0 0 0 0 0 0 0 0 0 0 -0 0 -0 -0 0 -0 -0 -0 -0 -0 -0 -0
-0 -0 -0 -0 -0 -0 -0 -0 -0 -0 -0 -0 -0 -0 0 0 0 0 -0 -0 -0 -0 0 -0 -0 0 0 0 0 0 -0 -0 -0 0 -0 0 -0 0 -0 -0 -0 -0 -0
-0 -0 -0 -0 -0 -0 -0 -0 -0 -0 -0 0 -0 0 0 0 0 0 -0 0 0 -0 -0 0 0 0 0 0 0 0 -0 -0 -0 -0 0 0 0 0 0 -0 -0 -0 -0
-0 -0 -0 -0 -0 -0 -0 -0 -0 -0 -0 -0 -0 -0 0 0 0 0 -0 -0 0 0 -0 0 -0 -0 0 0 0 0 0 -0 -0 -0 -0 0 0 0 0 0 0 0 -0
-0 -0 -0 -0 -0 -0 -0 -0 -0 -0 -0 -0 -0 -0 -0 -0 -0 0 -0 0 -0 0 0 -0 -0 -0 -0 0 0 0 0 -0 0 -0 -0 0 0 -0 -0 0 0 0 0
-0 -0 -0 -0 -0 -0 -0 0 -0 -0 -0 -0 -0 -0 -0 -0 -0 -0 0 0 0 -0 0 -0 -0 0 0 -0 -0 0 0 -0 -0 -0 -0 -0 -0 -0 -0 -0 0 0 0
-0 -0 -0 -0 -0 -0 -0 0 -0 0 -0 0 0 -0 -0 -0 -0 -0 0 0 -0 -0 -0 -0 -0 -0 0 -0 -0 -0 -0 0 0 0 0 -0 -0 -0 -0 -0 -0 0 0
0 0 0 0 -0 -0 -0 -0 0 -0 0 0 0 0 -0 -0 -0 -0 -0 0 -0 -0 -0 0 -0 0 -0 -0 0 0 0 0 0 0 0 0 0 -0 -0 -0 -0 -0 -0
0 0 -0 -0 -0 -0 -0 0 0 0 0 0 0 0 0 0 -0 -0 -0 -0 -0 -0 0 0 0 0 -0 -0 0 -0 0 -0 -0 0 0 0 0 0 0 -0 -0 -0 -0
-0 -0 -0 -0 -0 -0 0 0 0 0 0 0 0 0 0 0 0 0 0 0 0 0 0 0 -0 -0 0 -0 0 -0 -0 -0 -0 -0 0 -0 -0 0 0 0 0 0 -0
0 -0 -0 -0 -0 -0 0 0 0 0 0 0 0 0 0 0 0 0 0 0 0 0 0 0 0 0 0 -0 -0 0 0 0 -0 -0 -0 -0 -0 0 0 0 0 0 0
0 0 0 -0 0 -0 -0 0 0 0 0 0 0 0 0 0 0 0 0 0 0 0 0 0 0 0 -0 0 0 0 -0 0 0 0 0 0 0 0 0 0 0 0 0
0 0 0 0 0 0 0 0 0 0 0 0 0 0 0 0 0 0 0 0 0 0 0 0 0 -0 -0 0 0 0 0 0 0 0 0 -0 -0 0 0 0 0 0 0
0 0 0 0 0 0 -0 0 0 0 0 -0 -0 -0 0 0 0 0 0 0 0 0 0 0 0 -0 -0 0 0 0 0 0 0 0 0 -0 0 0 0 0 0 0 0
0 0 0 0 -0 0 -0 0 0 0 0 0 -0 -0 -0 0 0 0 0 0 0 0 0 0 0 0 0 0 0 0 0 0 0 0 -0 0 0 0 0 0 0 0 0
0 -0 -0 -0 -0 -0 0 0 0 0 0 0 0 0 0 0 0 0 0 0 0 0 0 0 0 0 0 0 0 0 0 0 0 0 0 0 0 0 0 0 0 0 0
Wind_Speed_500mb
55 55 49 49 48 44 42 43 42 42 46 48 49 47 41 36 34 33 34 34 36 35 34 32 31 29 33 31 32 33 32 30 29 28 29 28 27 25 27 27 27 26 25
66 58 53 52 49 46 44 45 43 44 46 48 47 44 38 35 34 35 33 32 33 34 34 33 33 33 34 33 33 34 32 30 27 27 27 27 27 24 24 25 27 28 29
67 61 55 52 48 44 41 42 43 45 46 48 45 40 35 35 32 31 30 30 30 31 33 32 33 31 30 32 34 37 33 29 27 27 24 25 25 23 23 22 23 24 25
68 63 58 51 46 43 41 40 42 44 45 43 39 34 32 30 28 28 27 28 28 29 29 28 29 29 30 32 35 35 31 28 26 24 19 19 23 23 23 23 21 22 22
66 62 58 51 44 42 40 38 38 40 40 39 34 29 28 27 27 27 26 26 26 26 25 26 26 27 31 37 35 30 25 23 24 22 18 16 19 22 21 21 22 22 21
66 62 58 51 43 38 36 36 35 35 35 34 30 27 25 25 25 24 22 22 22 22 24 24 24 25 30 32 27 24 17 15 22 21 18 17 15 19 19 20 21 22 21
65 62 57 51 41 34 31 32 33 31 31 30 28 24 23 23 22 20 18 17 18 20 21 23 25 26 26 29 24 17 19 20 20 18 16 16 12 13 17 16 20 20 20
59 61 57 50 42 35 32 32 32 29 28 26 23 23 22 21 19 18 15 13 14 19 21 20 22 24 25 26 26 21 19 18 15 17 15 11 10 9 10 12 19 17 19
51 54 54 50 45 39 36 35 32 29 27 24 23 21 20 20 20 18 14 12 14 18 22 23 22 23 26 26 24 26 23 21 20 20 16 12 9 10 10 12 17 19 17
48 46 47 48 46 43 40 36 32 30 27 26 23 21 20 20 21 20 17 12 19 23 26 26 26 26 29 29 25 25 25 25 24 20 18 16 10 9 11 12 12 15 17
53 50 47 46 46 44 40 37 33 30 28 28 28 25 23 23 24 25 23 17 19 26 27 28 29 29 30 31 31 30 30 32 29 24 21 22 19 18 12 14 15 16 15
57 53 49 47 46 43 40 38 35 32 31 30 29 28 27 25 24 22 23 29 26 32 30 30 30 30 32 31 30 32 33 37 39 37 31 25 21 28 21 16 16 17 17
48 48 46 49 46 44 40 36 31 28 28 30 29 28 26 23 22 24 21 16 23 23 32 31 31 30 29 29 30 30 32 36 38 43 42 38 29 33 29 28 23 19 19
49 39 31 40 46 42 36 34 31 22 22 29 29 26 27 21 20 24 33 27 20 23 27 28 29 28 27 27 26 28 27 29 28 36 43 46 43 36 35 39 35 28 26
47 45 38 36 41 41 35 34 34 23 18 16 21 23 23 23 15 19 17 20 18 23 16 23 28 28 28 28 26 25 29 30 31 35 37 38 39 44 32 42 40 42 38
48 47 39 41 40 38 32 38 35 26 22 21 19 22 24 22 22 16 22 25 26 22 22 17 20 27 32 30 31 30 27 27 24 28 31 30 29 33 32 36 41 43 47
60 48 47 34 44 43 32 33 35 32 27 28 25 21 24 27 23 17 20 24 22 20 21 23 22 26 30 33 33 33 34 34 30 31 30 30 32 33 24 30 34 36 46
49 49 29 44 45 46 32 31 32 33 33 31 28 24 21 22 25 25 22 22 20 21 19 21 18 25 30 31 34 34 36 34 35 34 35 35 37 38 38 29 26 33 38
42 35 54 33 55 51 35 35 30 30 35 37 34 27 24 27 28 31 27 26 24 29 26 17 22 26 25 30 32 34 40 40 38 39 40 37 38 35 32 31 31 28 30
50 24 54 50 57 58 36 31 37 39 42 39 41 41 36 31 28 32 33 28 30 32 31 33 25 26 29 26 29 31 41 45 44 49 46 43 43 42 38 33 33 34 32
56 64 48 60 54 58 38 39 47 46 40 38 37 40 42 41 37 35 35 34 35 33 30 29 29 28 29 23 29 31 35 50 52 52 48 51 48 46 42 41 36 36 33
39 56 49 48 56 54 50 43 49 43 42 37 36 41 48 47 46 47 42 40 38 39 38 37 35 34 28 27 30 32 23 28 48 51 55 57 54 47 46 49 45 42 39
35 50 54 49 47 64 59 59 62 61 46 42 42 45 46 51 51 52 54 49 48 47 42 39 42 41 37 29 34 29 11 15 9 16 32 49 55 54 52 48 51 48 45
54 31 43 54 37 43 49 58 56 43 39 36 44 52 57 57 58 60 59 57 57 51 48 46 46 47 42 38 35 39 38 37 22 15 11 16 32 53 56 58 60 53 48
60 39 34 33 33 35 34 33 34 35 41 42 43 50 57 64 67 72 71 67 66 51 49 52 53 54 49 41 37 38 37 37 38 45 43 27 23 25 35 50 61 56 53
50 48 41 26 33 38 19 20 27 27 30 40 52 64 68 70 71 77 74 66 61 52 51 46 54 52 47 46 42 41 43 40 38 36 38 35 35 31 28 33 34 50 53
Wind_Direction_500mb
169 158 156 150 146 141 137 135 132 131 132 134 132 130 124 122 122 119 114 117 123 128 126 121 119 115 116 119 119 118 117 118 118 120 119 115 109 105 106 115 119 121 121
159 159 157 152 149 144 135 134 132 133 137 138 136 133 127 122 120 117 119 116 120 120 120 119 119 119 120 119 117 115 115 114 119 114 113 114 112 112 115 111 108 107 112
160 158 156 153 148 144 137 134 139 138 136 141 142 136 129 125 121 118 120 120 125 122 123 124 124 129 127 126 122 121 118 117 117 117 113 111 112 112 116 114 113 118 120
161 159 156 153 148 142 138 138 137 142 145 144 144 140 135 133 132 127 126 125 125 125 128 130 130 129 130 128 128 122 117 114 111 113 112 116 118 119 119 121 124 124 126
164 162 159 156 152 146 143 139 138 141 144 149 148 146 145 141 135 129 130 130 134 136 134 135 134 139 138 137 134 131 127 122 114 107 104 106 123 127 128 130 132 132 133
168 166 165 163 156 149 147 149 145 144 148 155 156 155 151 147 141 135 132 135 138 142 143 145 143 144 148 150 144 145 143 131 135 118 106 114 119 126 134 142 140 138 133
172 172 174 174 171 165 161 159 157 158 160 160 161 159 158 159 155 152 143 141 152 158 153 152 159 161 162 159 151 145 150 138 149 134 117 111 127 144 146 145 143 143 140
176 179 181 184 186 186 181 175 170 169 171 169 172 172 173 175 177 177 173 165 178 181 178 174 172 167 172 178 173 171 165 161 161 153 153 149 144 166 175 164 145 147 147
179 183 187 190 192 195 193 189 185 185 186 185 189 189 192 193 197 197 199 207 204 204 200 192 192 190 183 181 180 181 193 195 186 177 167 159 167 179 188 187 164 168 167
181 184 188 191 193 194 194 196 198 199 204 207 209 212 210 214 216 214 218 239 240 220 211 205 204 203 196 195 195 203 209 204 198 203 193 193 203 203 198 199 194 192 178
184 187 190 192 195 198 200 203 209 212 217 221 221 225 229 229 233 229 232 261 258 235 227 215 210 209 214 214 214 218 221 225 220 219 216 219 230 217 210 206 203 217 207
183 189 195 199 201 202 208 212 216 223 225 229 229 234 236 238 239 248 251 265 263 238 234 226 219 216 219 221 228 225 225 228 231 231 234 226 231 220 219 227 210 218 218
183 189 201 203 204 205 211 215 216 221 228 229 231 235 238 238 240 240 236 266 251 244 235 230 224 223 230 226 225 227 217 223 230 231 236 234 234 226 232 235 237 227 226
192 193 190 202 208 209 213 217 215 213 231 229 228 230 233 236 248 252 252 259 249 238 236 234 237 225 223 222 224 218 205 206 221 231 231 230 237 237 242 238 237 236 234
201 198 193 189 201 209 216 214 202 208 207 208 211 219 232 243 264 255 245 234 231 234 232 242 239 227 225 223 215 208 218 221 229 229 230 230 234 235 244 237 238 237 233
210 204 202 201 196 198 205 201 211 213 215 219 230 241 247 250 256 270 244 244 239 242 241 249 247 235 223 225 224 235 218 214 218 217 219 230 233 238 245 239 240 237 236
217 215 208 216 205 205 206 205 210 220 223 231 241 258 259 254 254 261 253 246 251 251 245 244 241 237 235 236 236 234 230 222 224 227 228 232 237 241 246 237 239 238 239
236 232 227 221 219 218 220 218 225 229 234 238 246 253 251 257 249 260 262 257 249 249 256 248 247 249 246 248 246 239 237 234 228 236 239 241 250 250 251 254 246 242 243
230 262 232 246 223 224 234 231 242 251 247 255 249 249 268 256 263 261 264 262 256 252 250 258 252 255 260 247 248 246 240 237 235 238 244 244 243 244 246 249 249 248 248
214 206 225 229 224 219 226 232 242 250 262 261 255 262 268 257 263 265 267 265 263 259 254 249 266 264 260 252 249 252 240 236 236 239 245 245 247 248 253 254 253 253 254
219 227 222 227 223 220 224 226 233 244 257 265 263 261 251 254 258 264 272 268 266 262 259 257 260 263 254 250 245 249 246 237 236 240 247 249 248 247 253 256 253 248 253
222 220 234 238 230 230 242 245 235 253 258 263 266 263 261 258 255 259 265 267 265 265 263 254 250 253 254 245 246 253 269 251 245 245 249 248 250 251 252 249 250 247 252
217 226 218 223 245 237 239 244 243 251 256 272 270 270 272 263 260 259 261 265 266 260 261 256 249 248 253 245 242 246 233 238 273 266 258 250 250 249 252 253 247 250 248
227 239 236 238 251 226 241 252 257 268 272 285 283 279 271 266 261 261 258 258 260 261 261 252 251 248 255 246 248 247 248 253 276 294 294 291 264 252 252 255 254 252 246
230 247 240 240 243 247 258 274 270 262 283 296 288 276 266 262 259 259 254 253 249 247 259 255 257 249 247 246 248 256 260 259 259 265 281 288 278 285 261 264 257 254 251
243 247 238 256 242 254 224 275 274 281 295 297 290 284 277 267 258 253 256 259 254 244 247 252 261 254 257 254 253 252 254 256 260 264 272 277 286 283 281 281 259 247 247
Wind_Speed_850mb
55 55 49 49 48 44 42 43 42 42 46 48 49 47 41 36 34 33 34 34 36 35 34 32 31 29 33 31 32 33 32 30 29 28 29 28 27 25 27 27 27 26 25
66 58 53 52 49 46 44 45 43 44 46 48 47 44 38 35 34 35 33 32 33 34 34 33 33 33 34 33 33 34 32 30 27 27 27 27 27 24 24 25 27 28 29
67 61 55 52 48 44 41 42 43 45 46 48 45 40 35 35 32 31 30 30 30 31 33 32 33 31 30 32 34 37 33 29 27 27 24 25 25 23 23 22 23 24 25
68 63 58 51 46 43 41 40 42 44 45 43 39 34 32 30 28 28 27 28 28 29 29 28 29 29 30 32 35 35 31 28 26 24 19 19 23 23 23 23 21 22 22
66 62 58 51 44 42 40 38 38 40 40 39 34 29 28 27 27 27 26 26 26 26 25 26 26 27 31 37 35 30 25 23 24 22 18 16 19 22 21 21 22 22 21
66 62 58 51 43 38 36 36 35 35 35 34 30 27 25 25 25 24 22 22 22 22 24 24 24 25 30 32 27 24 17 15 22 21 18 17 15 19 19 20 21 22 21
65 62 57 51 41 34 31 32 33 31 31 30 28 24 23 23 22 20 18 17 18 20 21 23 25 26 26 29 24 17 19 20 20 18 16 16 12 13 17 16 20 20 20
59 61 57 50 42 35 32 32 32 29 28 26 23 23 22 21 19 18 15 13 14 19 21 20 22 24 25 26 26 21 19 18 15 17 15 11 10 9 10 12 19 17 19
51 54 54 50 45 39 36 35 32 29 27 24 23 21 20 20 20 18 14 12 14 18 22 23 22 23 26 26 24 26 23 21 20 20 16 12 9 10 10 12 17 19 17
48 46 47 48 46 43 40 36 32 30 27 26 23 21 20 20 21 20 17 12 19 23 26 26 26 26 29 29 25 25 25 25 24 20 18 16 10 9 11 12 12 15 17
53 50 47 46 46 44 40 37 33 30 28 28 28 25 23 23 24 25 23 17 19 26 27 28 29 29 30 31 31 30 30 32 29 24 21 22 19 18 12 14 15 16 15
57 53 49 47 46 43 40 38 35 32 31 30 29 28 27 25 24 22 23 29 26 32 30 30 30 30 32 31 30 32 33 37 39 37 31 25 21 28 21 16 16 17 17
48 48 46 49 46 44 40 36 31 28 28 30 29 28 26 23 22 24 21 16 23 23 32 31 31 30 29 29 30 30 32 36 38 43 42 38 29 33 29 28 23 19 19
49 39 31 40 46 42 36 34 31 22 22 29 29 26 27 21 20 24 33 27 20 23 27 28 29 28 27 27 26 28 27 29 28 36 43 46 43 36 35 39 35 28 26
47 45 38 36 41 41 35 34 34 23 18 16 21 23 23 23 15 19 17 20 18 23 16 23 28 28 28 28 26 25 29 30 31 35 37 38 39 44 32 42 40 42 38
48 47 39 41 40 38 32 38 35 26 22 21 19 22 24 22 22 16 22 25 26 22 22 17 20 27 32 30 31 30 27 27 24 28 31 30 29 33 32 36 41 43 47
60 48 47 34 44 43 32 33 35 32 27 28 25 21 24 27 23 17 20 24 22 20 21 23 22 26 30 33 33 33 34 34 30 31 30 30 32 33 24 30 34 36 46
49 49 29 44 45 46 32 31 32 33 33 31 28 24 21 22 25 25 22 22 20 21 19 21 18 25 30 31 34 34 36 34 35 34 35 35 37 38 38 29 26 33 38
42 35 54 33 55 51 35 35 30 30 35 37 34 27 24 27 28 31 27 26 24 29 26 17 22 26 25 30 32 34 40 40 38 39 40 37 38 35 32 31 31 28 30
50 24 54 50 57 58 36 31 37 39 42 39 41 41 36 31 28 32 33 28 30 32 31 33 25 26 29 26 29 31 41 45 44 49 46 43 43 42 38 33 33 34 32
56 64 48 60 54 58 38 39 47 46 40 38 37 40 42 41 37 35 35 34 35 33 30 29 29 28 29 23 29 31 35 50 52 52 48 51 48 46 42 41 36 36 33
39 56 49 48 56 54 50 43 49 43 42 37 36 41 48 47 46 47 42 40 38 39 38 37 35 34 28 27 30 32 23 28 48 51 55 57 54 47 46 49 45 42 39
35 50 54 49 47 64 59 59 62 61 46 42 42 45 46 51 51 52 54 49 48 47 42 39 42 41 37 29 34 29 11 15 9 16 32 49 55 54 52 48 51 48 45
54 31 43 54 37 43 49 58 56 43 39 36 44 52 57 57 58 60 59 57 57 51 48 46 46 47 42 38 35 39 38 37 22 15 11 16 32 53 56 58 60 53 48
60 39 34 33 33 35 34 33 34 35 41 42 43 50 57 64 67 72 71 67 66 51 49 52 53 54 49 41 37 38 37 37 38 45 43 27 23 25 35 50 61 56 53
50 48 41 26 33 38 19 20 27 27 30 40 52 64 68 70 71 77 74 66 61 52 51 46 54 52 47 46 42 41 43 40 38 36 38 35 35 31 28 33 34 50 53
Wind_Direction_850mb
169 158 156 150 146 141 137 135 132 131 132 134 132 130 124 122 122 119 114 117 123 128 126 121 119 115 116 119 119 118 117 118 118 120 119 115 109 105 106 115 119 121 121
159 159 157 152 149 144 135 134 132 133 137 138 136 133 127 122 120 117 119 116 120 120 120 119 119 119 120 119 117 115 115 114 119 114 113 114 112 112 115 111 108 107 112
160 158 156 153 148 144 137 134 139 138 136 141 142 136 129 125 121 118 120 120 125 122 123 124 124 129 127 126 122 121 118 117 117 117 113 111 112 112 116 114 113 118 120
161 159 156 153 148 142 138 138 137 142 145 144 144 140 135 133 132 127 126 125 125 125 128 130 130 129 130 128 128 122 117 114 111 113 112 116 118 119 119 121 124 124 126
164 162 159 156 152 146 143 139 138 141 144 149 148 146 145 141 135 129 130 130 134 136 134 135 134 139 138 137 134 131 127 122 114 107 104 106 123 127 128 130 132 132 133
168 166 165 163 156 149 147 149 145 144 148 155 156 155 151 147 141 135 132 135 138 142 143 145 143 144 148 150 144 145 143 131 135 118 106 114 119 126 134 142 140 138 133
172 172 174 174 171 165 161 159 157 158 160 160 161 159 158 159 155 152 143 141 152 158 153 152 159 161 162 159 151 145 150 138 149 134 117 111 127 144 146 145 143 143 140
176 179 181 184 186 186 181 175 170 169 171 169 172 172 173 175 177 177 173 165 178 181 178 174 172 167 172 178 173 171 165 161 161 153 153 149 144 166 175 164 145 147 147
179 183 187 190 192 195 193 189 185 185 186 185 189 189 192 193 197 197 199 207 204 204 200 192 192 190 183 181 180 181 193 195 186 177 167 159 167 179 188 187 164 168 167
181 184 188 191 193 194 194 196 198 199 204 207 209 212 210 214 216 214 218 239 240 220 211 205 204 203 196 195 195 203 209 204 198 203 193 193 203 203 198 199 194 192 178
184 187 190 192 195 198 200 203 209 212 217 221 221 225 229 229 233 229 232 261 258 235 227 215 210 209 214 214 214 218 221 225 220 219 216 219 230 217 210 206 203 217 207
183 189 195 199 201 202 208 212 216 223 225 229 229 234 236 238 239 248 251 265 263 238 234 226 219 216 219 221 228 225 225 228 231 231 234 226 231 220 219 227 210 218 218
183 189 201 203 204 205 211 215 216 221 228 229 231 235 238 238 240 240 236 266 251 244 235 230 224 223 230 226 225 227 217 223 230 231 236 234 234 226 232 235 237 227 226
192 193 190 202 208 209 213 217 215 213 231 229 228 230 233 236 248 252 252 259 249 238 236 234 237 225 223 222 224 218 205 206 221 231 231 230 237 237 242 238 237 236 234
201 198 193 189 201 209 216 214 202 208 207 208 211 219 232 243 264 255 245 234 231 234 232 242 239 227 225 223 215 208 218 221 229 229 230 230 234 235 244 237 238 237 233
210 204 202 201 196 198 205 201 211 213 215 219 230 241 247 250 256 270 244 244 239 242 241 249 247 235 223 225 224 235 218 214 218 217 219 230 233 238 245 239 240 237 236
217 215 208 216 205 205 206 205 210 220 223 231 241 258 259 254 254 261 253 246 251 251 245 244 241 237 235 236 236 234 230 222 224 227 228 232 237 241 246 237 239 238 239
236 232 227 221 219 218 220 218 225 229 234 238 246 253 251 257 249 260 262 257 249 249 256 248 247 249 246 248 246 239 237 234 228 236 239 241 250 250 251 254 246 242 243
230 262 232 246 223 224 234 231 242 251 247 255 249 249 268 256 263 261 264 262 256 252 250 258 252 255 260 247 248 246 240 237 235 238 244 244 243 244 246 249 249 248 248
214 206 225 229 224 219 226 232 242 250 262 261 255 262 268 257 263 265 267 265 263 259 254 249 266 264 260 252 249 252 240 236 236 239 245 245 247 248 253 254 253 253 254
219 227 222 227 223 220 224 226 233 244 257 265 263 261 251 254 258 264 272 268 266 262 259 257 260 263 254 250 245 249 246 237 236 240 247 249 248 247 253 256 253 248 253
222 220 234 238 230 230 242 245 235 253 258 263 266 263 261 258 255 259 265 267 265 265 263 254 250 253 254 245 246 253 269 251 245 245 249 248 250 251 252 249 250 247 252
217 226 218 223 245 237 239 244 243 251 256 272 270 270 272 263 260 259 261 265 266 260 261 256 249 248 253 245 242 246 233 238 273 266 258 250 250 249 252 253 247 250 248
227 239 236 238 251 226 241 252 257 268 272 285 283 279 271 266 261 261 258 258 260 261 261 252 251 248 255 246 248 247 248 253 276 294 294 291 264 252 252 255 254 252 246
230 247 240 240 243 247 258 274 270 262 283 296 288 276 266 262 259 259 254 253 249 247 259 255 257 249 247 246 248 256 260 259 259 265 281 288 278 285 261 264 257 254 251
243 247 238 256 242 254 224 275 274 281 295 297 290 284 277 267 258 253 256 259 254 244 247 252 261 254 257 254 253 252 254 256 260 264 272 277 286 283 281 281 259 247 247